sat.trackr.live / text

‹ back to catalog

STARLINK-34507

NORAD 64437 · 2025-129AB

PAYLOAD ACTIVE UNKNOWN

§ Identity

Operator
Country
US
Launch date
2025-06-17
Launch site
AFWTR
Launch vehicle
Mass (kg)
RCS (m²)

Purposes: comms

External: N2YO · Heavens-Above · Gunter

§ Orbital elements

Epoch: 2026-09-20T12:41:44.145024Z

Period
94.14 min
Inclination
70.0002°
Eccentricity
0.0003913
Mean motion
15.29587751 rev/d
Perigee alt
474.4 km
Apogee alt
479.7 km
Semi-major
6,855.2 km
B*
2.5325e-4
RAAN
300.7498°
Arg perigee
280.6154°
Mean anomaly
79.4580°
Rev number
7,053

§ Raw data

STARLINK-345071 64437U 25129AB  26263.52898316  .00007161  00000+0  25325-3 0  99982 64437  70.0002 300.7498 0003913 280.6154  79.4580 15.29587751 70536

JSON: /api/v1/satellites/64437 · /tle

For live sub-satellite position, see the globe view (requires WebGL).

§ Visibility from observer

Set your observer location to see the next 7 days of passes ≥ 10°. The values pass through the URL so the page stays shareable.

No JS? Fill the form by hand. The geolocation button needs JavaScript.